Weather in Turbat

Pakistan     25°58′02″N   63°02′37″E
temp.,
°C
wind,
m/s
gust,
m/s
humid.,
%
clouds,
%
prec.,
mm/h
press.,
hPa
HPBL,
m
20 january, wed
wed2023:00+18ese128914 0.0 101751
02:00+16ene119414 0.0 101728
05:00+15ene12948 0.0 101623
08:00+15ne12910 0.0 101823
11:00+23ese12420 0.0 1018670
14:00+27ssw43290 0.0 10151223
17:00+27wsw54280 0.0 10131437
20:00+20s45760 0.0 101699
21 january, thu
thu2123:00+17sse11890 0.0 101623
02:00+16se11930 0.0 101623
05:00+15se11940 0.0 101523
08:00+15se11940 0.0 101623
11:00+21sw22570 0.0 1016588
14:00+26wsw55320 0.0 10131028
17:00+27wsw67260 0.0 10121149
20:00+19s457060 0.0 101486
22 january, fri
fri2223:00+17s118545 0.0 101423
02:00+15se118941 0.0 101323
05:00+14nne118920 0.0 101223
08:00+15nne22780 0.0 101523
11:00+23nne911130 0.0 1016928
14:00+25n1011110 0.0 10141186
17:00+23nne1214110 0.0 1013808
20:00+16nne1725160 0.0 1018507
23 january, sat
sat2323:00+14nne1827160 0.0 1020537
02:00+12nne2029190 0.0 1020532
05:00+11nne2130180 0.0 1019560
08:00+10nne2232130 0.0 1021592
11:00+16nne182560 0.0 1021859
14:00+21nne131730 0.0 10181084
17:00+20nne91340 0.0 10171235
20:00+12n58100 0.0 1020126
24 january, sun
sun2423:00+12nne71790 0.0 1020419
02:00+12nne81780 0.0 1020372
05:00+11nne61190 0.0 1018179
08:00+10nne57120 0.0 102088
11:00+20nne111560 0.0 1020898
14:00+25ne91040 0.0 10171253
17:00+23ne101160 0.0 1016997
20:00+15ne916100 0.0 1019278